TimeCST,TemperatureF,Dew PointF,Humidity,Sea Level PressureIn,VisibilityMPH,Wind Direction,Wind SpeedMPH,Gust SpeedMPH,PrecipitationIn,Events,Conditions,WindDirDegrees,DateUTC
12:53 AM,39.0,36.0,89,29.89,10.0,Calm,Calm,-,N/A,,Clear,0,2012-12-18 06:53:00
1:53 AM,37.0,35.1,93,29.89,10.0,Calm,Calm,-,N/A,,Clear,0,2012-12-18 07:53:00
2:53 AM,36.0,34.0,93,29.90,10.0,Calm,Calm,-,N/A,,Clear,0,2012-12-18 08:53:00
3:53 AM,35.1,33.1,92,29.89,10.0,Calm,Calm,-,N/A,,Clear,0,2012-12-18 09:53:00
4:53 AM,35.1,32.0,89,29.90,10.0,Calm,Calm,-,N/A,,Clear,0,2012-12-18 10:53:00
5:53 AM,35.6,32.0,87,29.90,10.0,Calm,Calm,-,N/A,,Clear,0,2012-12-18 11:53:00
6:53 AM,35.1,33.1,92,29.92,10.0,Calm,Calm,-,N/A,,Clear,0,2012-12-18 12:53:00
7:53 AM,36.0,34.0,93,29.93,10.0,Calm,Calm,-,N/A,,Clear,0,2012-12-18 13:53:00
8:53 AM,45.0,39.0,80,29.93,10.0,SSE,8.1,-,N/A,,Clear,150,2012-12-18 14:53:00
9:53 AM,52.0,42.1,69,29.92,10.0,SSE,10.4,-,N/A,,Clear,150,2012-12-18 15:53:00
10:53 AM,59.0,42.1,53,29.91,10.0,South,8.1,-,N/A,,Clear,170,2012-12-18 16:53:00
11:53 AM,63.0,41.0,45,29.89,10.0,South,13.8,21.9,N/A,,Clear,180,2012-12-18 17:53:00
12:53 PM,66.9,42.1,40,29.86,10.0,SSW,6.9,-,N/A,,Clear,200,2012-12-18 18:53:00
1:53 PM,69.1,42.1,38,29.83,10.0,South,9.2,-,N/A,,Clear,190,2012-12-18 19:53:00
2:53 PM,70.0,43.0,38,29.82,10.0,South,12.7,18.4,N/A,,Clear,170,2012-12-18 20:53:00
3:53 PM,70.0,43.0,38,29.82,10.0,South,11.5,-,N/A,,Clear,180,2012-12-18 21:53:00
4:53 PM,64.9,45.0,48,29.81,10.0,SE,5.8,-,N/A,,Clear,140,2012-12-18 22:53:00
5:53 PM,55.9,46.9,72,29.83,10.0,Calm,Calm,-,N/A,,Clear,0,2012-12-18 23:53:00
6:53 PM,51.1,46.0,83,29.86,10.0,Calm,Calm,-,N/A,,Clear,0,2012-12-19 00:53:00
7:53 PM,51.1,45.0,80,29.86,10.0,SSE,3.5,-,N/A,,Clear,160,2012-12-19 01:53:00
8:53 PM,51.1,45.0,80,29.86,10.0,Calm,Calm,-,N/A,,Clear,0,2012-12-19 02:53:00
9:53 PM,50.0,45.0,83,29.87,10.0,SSE,3.5,-,N/A,,Clear,150,2012-12-19 03:53:00
10:53 PM,54.0,46.9,77,29.88,10.0,SSE,4.6,-,N/A,,Clear,160,2012-12-19 04:53:00
11:53 PM,51.1,46.9,86,29.88,10.0,SSE,4.6,-,N/A,,Clear,150,2012-12-19 05:53:00